Weather History for Sioux City, IA

Change the Weather History Date:

Tuesday, April 1, 2014

  Actual Average Record
Temperature  
Mean Temperature 29 °F 44 °F  
Max Temperature 38 °F 56 °F 93 °F (2012)
Min Temperature 20 °F 31 °F 8 °F (1924)
Degree Days  
Heating Degree Days 36 22  
Month to date heating degree days 36 22  
Since 1 July heating degree days 6620 6200  
Cooling Degree Days 0 0  
Month to date cooling degree days 0 0  
Year to date cooling degree days 0 0  
Moisture  
Dew Point 16 °F    
Average Humidity 58    
Maximum Humidity 68    
Minimum Humidity 48    
Precipitation  
Precipitation T in 0.08 in 1.38 in (1960)
Month to date precipitation T 0.08  
Year to date precipitation 1.15 3.37  
Snow  
Snow T in 0.10 in 4.50 in (1895)
Month to date snowfall T 0.1  
Since 1 July snowfall 18.5 33.1  
Snow Depth 0.00 in    
Sea Level Pressure  
Sea Level Pressure 30.07 in    
Wind  
Wind Speed 13 mph (NW)    
Max Wind Speed 35 mph    
Max Gust Speed 46 mph    
Visibility 10 miles    
Events Snow    
T = Trace of Precipitation, MM = Missing Value Source: NWS Daily Summary

Daily Weather History Graph

Daily Weather History Graph

Search for Another Location

Airport:

Trip Planner

Search our weather history database for the weather conditions in past years. The results will help you decide how hot, cold, wet, or windy it might be!

Date:

Astronomy

Apr. 01, 2014 Rise Set
Actual Time 7:07 AM CDT 7:51 PM CDT
Civil Twilight 6:39 AM CDT 8:19 PM CDT
Nautical Twilight 6:05 AM CDT 8:53 PM CDT
Astronomical Twilight 5:31 AM CDT 9:28 PM CDT
Moon 8:09 AM CDT (4/1) 10:18 PM CDT (4/1)
Length of Visible Light 13h 40m
Length of Day
12h 43m
Waxing Crescent, 5% of the Moon is Illuminated
Apr 1
Waxing Crescent
Apr 7
First Quarter
Apr 15
Full
Apr 22
Last Quarter
Apr 29
New

Hourly Weather History & Observations

Time (CDT) Temp. Windchill Dew Point Humidity Pressure Visibility Wind Dir Wind Speed Gust Speed Precip Events Conditions
12:09 AM 23.0 °F 6.6 °F 12.0 °F 63% 29.85 in 9.0 mi NW 25.3 mph 38.0 mph 0.00 in   Overcast
12:52 AM 23.0 °F 6.9 °F 12.9 °F 65% 29.91 in 9.0 mi NW 24.2 mph 34.5 mph 0.00 in Snow Light Snow
1:52 AM 23.0 °F 7.2 °F 12.9 °F 65% 29.93 in 10.0 mi NW 23.0 mph 34.5 mph 0.00 in   Overcast
2:29 AM 23.0 °F 6.0 °F 12.9 °F 65% 29.92 in 9.0 mi NNW 27.6 mph 39.1 mph 0.00 in Snow Light Snow
2:52 AM 21.9 °F 7.8 °F 12.9 °F 68% 29.96 in 10.0 mi NW 17.3 mph 31.1 mph 0.00 in   Partly Cloudy
3:52 AM 21.9 °F 6.5 °F 12.9 °F 68% 29.99 in 10.0 mi NW 20.7 mph 33.4 mph N/A   Clear
4:52 AM 21.9 °F 5.8 °F 12.9 °F 68% 30.02 in 10.0 mi NW 23.0 mph 31.1 mph N/A   Clear
5:52 AM 21.0 °F 4.3 °F 12.9 °F 71% 30.02 in 10.0 mi NW 24.2 mph 33.4 mph 0.00 in   Clear
6:52 AM 21.0 °F 5.7 °F 12.9 °F 71% 30.05 in 10.0 mi NW 19.6 mph - N/A   Clear
7:52 AM 19.9 °F 4.8 °F 10.9 °F 68% 30.09 in 10.0 mi NW 18.4 mph 26.5 mph N/A   Clear
8:52 AM 21.9 °F 6.2 °F 10.9 °F 63% 30.11 in 10.0 mi NW 21.9 mph 28.8 mph N/A   Clear
9:52 AM 26.1 °F 11.3 °F 12.0 °F 55% 30.14 in 10.0 mi NW 23.0 mph 27.6 mph N/A   Clear
10:52 AM 28.9 °F 17.3 °F 14.0 °F 54% 30.15 in 10.0 mi NW 16.1 mph - N/A   Clear
11:52 AM 32.0 °F 21.2 °F 16.0 °F 52% 30.14 in 10.0 mi NW 16.1 mph - N/A   Clear
12:52 PM 33.1 °F 24.4 °F 17.1 °F 52% 30.12 in 10.0 mi NW 11.5 mph - N/A   Clear
1:52 PM 34.0 °F 24.6 °F 18.0 °F 52% 30.13 in 10.0 mi WNW 13.8 mph - N/A   Overcast
2:52 PM 36.0 °F 27.5 °F 19.0 °F 50% 30.13 in 10.0 mi NW 12.7 mph - N/A   Overcast
3:52 PM 37.0 °F 31.0 °F 19.0 °F 48% 30.11 in 10.0 mi WNW 8.1 mph - N/A   Overcast
4:52 PM 36.0 °F 29.6 °F 19.9 °F 52% 30.12 in 10.0 mi NNW 8.1 mph - N/A   Overcast
5:52 PM 37.0 °F 30.4 °F 19.9 °F 50% 30.10 in 10.0 mi North 9.2 mph - N/A   Overcast
6:52 PM 37.0 °F 34.5 °F 19.9 °F 50% 30.11 in 10.0 mi North 3.5 mph - N/A   Overcast
7:52 PM 36.0 °F 33.3 °F 19.9 °F 52% 30.11 in 10.0 mi WNW 3.5 mph - N/A   Overcast
8:52 PM 34.0 °F 28.8 °F 19.9 °F 56% 30.13 in 10.0 mi NW 5.8 mph - N/A   Overcast
9:52 PM 34.0 °F 31.0 °F 21.0 °F 59% 30.14 in 10.0 mi North 3.5 mph - N/A   Overcast
10:52 PM 32.0 °F 28.7 °F 19.9 °F 61% 30.14 in 10.0 mi NNW 3.5 mph - N/A   Overcast
11:52 PM 30.0 °F 23.2 °F 19.9 °F 66% 30.15 in 10.0 mi North 6.9 mph - N/A   Scattered Clouds